This is the latest recevied weather packets stored in our database for station/object KA1JKB. If no packets are shown the sender has not sent any weather packets the latest 10 day(s).
| Time | Temp. | Humidity | Pressure | Rain* | Wind** | Luminosity | Snow |
|---|---|---|---|---|---|---|---|
| 1787938544 | 25.56° C | 52% | 1019.6 hPa | 0 mm | - | 671 W/m² | - |
| 1787938240 | 25° C | 53% | 1019.6 hPa | 0 mm | - | 694 W/m² | - |
| 1787937940 | 25° C | 50% | 1019.8 hPa | 0 mm | - | 691 W/m² | - |
| 1787937635 | 24.44° C | 52% | 1019.8 hPa | 0 mm | - | 684 W/m² | - |
| 1787937332 | 25° C | 52% | 1019.8 hPa | 0 mm | - | 674 W/m² | - |
| 1787937027 | 25° C | 52% | 1019.8 hPa | 0 mm | - | 685 W/m² | - |
| 1787936726 | 25.56° C | 56% | 1019.8 hPa | 0 mm | - | 681 W/m² | - |
| 1787936422 | 25.56° C | 55% | 1019.8 hPa | 0 mm | - | 683 W/m² | - |
| 1787936121 | 25° C | 53% | 1019.7 hPa | 0 mm | - | 688 W/m² | - |
| 1787935816 | 25° C | 53% | 1019.8 hPa | 0 mm | - | 703 W/m² | - |
| 1787935513 | 24.44° C | 48% | 1019.7 hPa | 0 mm | - | 704 W/m² | - |
| 1787935209 | 24.44° C | 50% | 1019.8 hPa | 0 mm | - | 731 W/m² | - |
| 1787934903 | 25° C | 53% | 1019.7 hPa | 0 mm | - | 732 W/m² | - |
| 1787934603 | 23.89° C | 56% | 1019.7 hPa | 0 mm | - | 739 W/m² | - |
| 1787934297 | 24.44° C | 57% | 1019.7 hPa | 0 mm | - | 719 W/m² | - |
| 1787933996 | 23.89° C | 55% | 1019.6 hPa | 0 mm | - | 701 W/m² | - |
| 1787933696 | 24.44° C | 53% | 1019.8 hPa | 0 mm | - | 738 W/m² | - |
| 1787933392 | 23.89° C | 54% | 1019.7 hPa | 0 mm | - | 766 W/m² | - |
| 1787933091 | 23.33° C | 56% | 1019.8 hPa | 0 mm | - | 744 W/m² | - |
| 1787932789 | 23.89° C | 55% | 1019.9 hPa | 0 mm | - | 748 W/m² | - |
| 1787932485 | 23.89° C | 59% | 1019.7 hPa | 0 mm | - | 757 W/m² | - |
| 1787932180 | 23.33° C | 58% | 1019.8 hPa | 0 mm | - | 751 W/m² | - |
| 1787931878 | 23.89° C | 56% | 1019.7 hPa | 0 mm | - | 782 W/m² | - |
| 1787931573 | 23.89° C | 61% | 1019.7 hPa | 0 mm | - | 798 W/m² | - |
| 1787931268 | 23.89° C | 61% | 1019.6 hPa | 0 mm | - | 809 W/m² | - |
* Rain latest hour (hover to see other rain measurements)
** Current wind speed in m/s (hover to see current wind gust speed)